W3ADC Weather Reports


Display with metric or nautical units.
time (UTC)temp
F
wind
direction
speed
MPH
gust
MPH
rain 1hr
in
rain 24hr
in
rain mn
in
humidity
%
barometer
mb
20260505153056 76 254 5.0 10.0 0.00 0.00 0.00 44 1010.1
20260505152542 76 161 2.0 8.0 0.00 0.00 0.00 48 1010.0
20260505152041 76 249 2.0 8.0 0.00 0.00 0.00 47 1010.0
20260505151601 76 267 2.0 8.0 0.00 0.00 0.00 49 1009.9
20260505151043 75 207 3.0 8.0 0.00 0.00 0.00 46 1010.0
20260505150542 75 225 3.0 7.0 0.00 0.00 0.00 46 1010.0
20260505150108 75 248 2.0 13.0 0.00 0.00 0.00 49 1009.9
20260505140541 71 240 2.0 6.0 0.00 0.00 0.00 54 1010.3
20260505125041 65 213 3.0 9.0 0.00 0.00 0.00 61 1010.8
20260505124559 64 209 2.0 9.0 0.00 0.00 0.00 62 1010.8
20260505124042 64 234 2.0 12.0 0.00 0.00 0.00 63 1010.7
20260505123550 63 198 4.0 12.0 0.00 0.00 0.00 63 1010.9
20260505123056 63 232 3.0 12.0 0.00 0.00 0.00 63 1010.9
20260505122542 63 205 2.0 9.0 0.00 0.00 0.00 64 1010.9
20260505122044 62 203 3.0 9.0 0.00 0.00 0.00 64 1010.9
20260505121618 62 219 3.0 12.0 0.00 0.00 0.00 65 1011.0
20260505121042 62 192 6.0 12.0 0.00 0.00 0.00 65 1010.9
20260505120542 61 221 5.0 12.0 0.00 0.00 0.00 65 1010.8
20260505120053 61 234 3.0 8.0 0.00 0.00 0.00 66 1010.7
20260505115541 61 217 3.0 8.0 0.00 0.00 0.00 67 1010.6
20260505115042 60 216 3.0 11.0 0.00 0.00 0.00 67 1010.5
20260505114554 60 235 3.0 11.0 0.00 0.00 0.00 68 1010.4
20260505114041 60 161 2.0 5.0 0.00 0.00 0.00 68 1010.4
20260505113541 60 226 2.0 11.0 0.00 0.00 0.00 68 1010.3
20260505113103 60 219 3.0 11.0 0.00 0.00 0.00 68 1010.3
20260505112540 60 238 2.0 9.0 0.00 0.00 0.00 68 1010.3
20260505112041 59 215 2.0 9.0 0.00 0.00 0.00 68 1010.2
20260505111549 59 209 2.0 7.0 0.00 0.00 0.00 68 1010.1
20260505111043 59 232 2.0 10.0 0.00 0.00 0.00 69 1010.1
20260505110542 59 177 3.0 10.0 0.00 0.00 0.00 69 1010.0
20260505102040 59 209 3.0 10.0 0.00 0.00 0.00 69 1009.5
20260505101547 59 242 3.0 10.0 0.00 0.00 0.00 69 1009.4
20260505101041 58 223 3.0 9.0 0.00 0.00 0.00 70 1009.5
20260505100541 58 226 4.0 9.0 0.00 0.00 0.00 70 1009.5
20260505100123 58 227 2.0 9.0 0.00 0.00 0.00 70 1009.5
20260505095546 58 209 3.0 9.0 0.00 0.00 0.00 70 1009.4
20260505095046 58 212 3.0 7.0 0.00 0.00 0.00 70 1009.5
20260505094545 59 221 2.0 9.0 0.00 0.00 0.00 69 1009.4
20260505094041 59 208 2.0 9.0 0.00 0.00 0.00 69 1009.4
20260505093542 59 219 3.0 7.0 0.00 0.00 0.00 69 1009.3
20260505093044 59 229 2.0 8.0 0.00 0.00 0.00 68 1009.3
20260505092545 59 224 3.0 12.0 0.00 0.00 0.00 67 1009.3
20260505092042 60 200 4.0 12.0 0.00 0.00 0.00 67 1009.2
20260505091611 60 188 5.0 12.0 0.00 0.00 0.00 67 1009.2
20260505091041 60 209 5.0 10.0 0.00 0.00 0.00 67 1009.1
20260505090541 60 211 4.0 10.0 0.00 0.00 0.00 66 1009.1
20260505090100 60 189 4.0 11.0 0.00 0.00 0.00 66 1009.2
20260505085540 60 218 4.0 11.0 0.00 0.00 0.00 66 1009.1
20260505085040 61 255 3.0 10.0 0.00 0.00 0.00 66 1009.1
20260505084550 61 210 3.0 14.0 0.00 0.00 0.00 65 1009.0
20260505084044 61 201 4.0 14.0 0.00 0.00 0.00 65 1009.1
20260505083544 61 165 5.0 11.0 0.00 0.00 0.00 65 1009.1
20260505083052 61 213 3.0 14.0 0.00 0.00 0.00 65 1009.0
20260505082541 61 219 3.0 14.0 0.00 0.00 0.00 65 1009.0
20260505082042 61 233 3.0 14.0 0.00 0.00 0.00 64 1009.0
20260505081557 61 234 2.0 14.0 0.00 0.00 0.00 64 1009.0
20260505081044 61 198 3.0 9.0 0.00 0.00 0.00 64 1009.0
20260505080541 61 207 3.0 9.0 0.00 0.00 0.00 63 1009.0
20260505080052 62 236 2.0 9.0 0.00 0.00 0.00 63 1008.9
20260505075540 62 217 3.0 10.0 0.00 0.00 0.00 63 1008.9
20260505075040 62 223 4.0 10.0 0.00 0.00 0.00 62 1008.9
20260505074549 62 182 3.0 11.0 0.00 0.00 0.00 62 1008.9
20260505074044 62 239 4.0 13.0 0.00 0.00 0.00 61 1008.8
20260505073539 62 225 5.0 13.0 0.00 0.00 0.00 61 1008.8
20260505073056 63 180 4.0 11.0 0.00 0.00 0.00 60 1008.8
20260505072543 63 205 5.0 10.0 0.00 0.00 0.00 60 1008.8
20260505072042 63 216 4.0 14.0 0.00 0.00 0.00 60 1008.7
20260505071549 63 221 5.0 14.0 0.00 0.00 0.00 59 1008.7
20260505071040 63 209 4.0 15.0 0.00 0.00 0.00 59 1008.6
20260505070541 63 217 4.0 15.0 0.00 0.00 0.00 59 1008.7
20260505070052 63 166 4.0 11.0 0.00 0.00 0.00 60 1008.6
20260505065541 63 222 2.0 11.0 0.00 0.00 0.00 60 1008.6
20260505065040 63 207 4.0 11.0 0.00 0.00 0.00 60 1008.7
20260505064547 63 242 3.0 9.0 0.00 0.00 0.00 61 1008.7
20260505064040 62 220 3.0 9.0 0.00 0.00 0.00 62 1008.7
20260505063540 62 222 3.0 11.0 0.00 0.00 0.00 62 1008.9
20260505063051 62 183 4.0 11.0 0.00 0.00 0.00 63 1008.9
20260505062540 62 121 2.0 9.0 0.00 0.00 0.00 63 1008.9
20260505062041 62 226 2.0 6.0 0.00 0.00 0.00 63 1008.9
20260505061548 62 211 1.0 9.0 0.00 0.00 0.00 62 1008.9
20260505061040 62 208 2.0 9.0 0.00 0.00 0.00 62 1008.9
20260505060544 62 211 2.0 4.0 0.00 0.00 0.00 62 1009.0
20260505060049 63 228 2.0 4.0 0.00 0.00 0.00 62 1009.0
20260505055540 63 219 2.0 7.0 0.00 0.00 0.00 61 1009.0
20260505055041 63 227 2.0 7.0 0.00 0.00 0.00 61 1009.1
20260505054615 63 176 3.0 8.0 0.00 0.00 0.00 61 1009.1
20260505054041 63 227 2.0 12.0 0.00 0.00 0.00 60 1009.0
20260505053540 64 215 3.0 12.0 0.00 0.00 0.00 60 1009.1
20260505053048 64 228 3.0 10.0 0.00 0.00 0.00 60 1009.1
20260505052544 64 223 3.0 10.0 0.00 0.00 0.00 60 1009.1
20260505052040 64 229 3.0 9.0 0.00 0.00 0.00 60 1009.0
20260505051549 64 215 3.0 9.0 0.00 0.00 0.00 60 1009.0
20260505051041 64 213 4.0 9.0 0.00 0.00 0.00 60 1009.0
20260505050540 63 203 3.0 12.0 0.00 0.00 0.00 60 1008.9
20260505041600 64 223 2.0 10.0 0.00 0.00 0.00 58 1008.9
20260505041041 64 213 3.0 10.0 0.00 0.00 0.00 58 1008.8
20260505040542 64 230 3.0 8.0 0.00 0.00 0.00 57 1008.7
20260505040052 64 228 2.0 7.0 0.00 0.00 0.00 57 1008.8
20260505035540 64 212 2.0 7.0 0.00 0.00 0.00 56 1008.9
20260505035040 64 224 2.0 10.0 0.00 0.00 0.00 56 1008.7
20260505034547 64 205 2.0 10.0 0.00 0.00 0.00 56 1008.7
20260505034040 64 202 3.0 8.0 0.00 0.00 0.00 56 1008.7
20260505033542 64 169 3.0 8.0 0.00 0.00 0.00 56 1008.7
20260505033049 64 211 3.0 10.0 0.00 0.00 0.00 56 1008.7
20260505032541 64 220 3.0 10.0 0.00 0.00 0.00 55 1008.6
20260505032039 64 169 2.0 8.0 0.00 0.00 0.00 55 1008.6
20260505031547 64 216 3.0 13.0 0.00 0.00 0.00 55 1008.7
20260505031041 64 191 5.0 13.0 0.00 0.00 0.00 54 1008.6
20260505030544 64 208 4.0 11.0 0.00 0.00 0.00 54 1008.7
20260505030058 65 217 5.0 12.0 0.00 0.00 0.00 54 1008.6
20260505025541 65 204 5.0 15.0 0.00 0.00 0.00 54 1008.6
20260505025041 65 208 4.0 15.0 0.00 0.00 0.00 53 1008.6
20260505024547 65 187 4.0 15.0 0.00 0.00 0.00 53 1008.6
20260505024040 65 196 6.0 15.0 0.00 0.00 0.00 53 1008.7
20260505023540 65 221 5.0 10.0 0.00 0.00 0.00 53 1008.7
20260505023049 65 225 3.0 10.0 0.00 0.00 0.00 53 1008.8
20260505022540 65 244 4.0 10.0 0.00 0.00 0.00 52 1008.8
20260505022041 65 186 4.0 11.0 0.00 0.00 0.00 52 1008.7
20260505021552 65 211 3.0 11.0 0.00 0.00 0.00 52 1008.6
20260505021041 66 175 3.0 10.0 0.00 0.00 0.00 51 1008.6
20260505020544 66 188 4.0 10.0 0.00 0.00 0.00 51 1008.5
20260505020052 66 202 4.0 15.0 0.00 0.00 0.00 51 1008.6
20260505015542 66 209 4.0 15.0 0.00 0.00 0.00 51 1008.5
20260505015044 66 219 4.0 15.0 0.00 0.00 0.00 51 1008.5
20260505014545 65 215 5.0 15.0 0.00 0.00 0.00 50 1008.4
20260505014041 65 183 5.0 14.0 0.00 0.00 0.00 50 1008.3
20260505013545 65 205 4.0 10.0 0.00 0.00 0.00 50 1008.6
20260505013049 65 186 4.0 10.0 0.00 0.00 0.00 50 1008.6
20260505012541 65 157 5.0 10.0 0.00 0.00 0.00 49 1008.6
20260505012042 65 198 3.0 9.0 0.00 0.00 0.00 49 1008.5
20260505011549 65 206 4.0 9.0 0.00 0.00 0.00 49 1008.5
20260505011043 65 184 4.0 9.0 0.00 0.00 0.00 49 1008.4
20260505010544 66 169 4.0 9.0 0.00 0.00 0.00 49 1008.3
20260505010104 66 194 3.0 10.0 0.00 0.00 0.00 48 1008.2
20260505005541 66 190 4.0 12.0 0.00 0.00 0.00 47 1008.1
20260505005043 66 163 4.0 12.0 0.00 0.00 0.00 47 1008.1
20260505004550 66 216 5.0 10.0 0.00 0.00 0.00 47 1008.1
20260505004040 66 219 5.0 10.0 0.00 0.00 0.00 47 1008.0
20260505003541 67 180 3.0 12.0 0.00 0.00 0.00 47 1008.0
20260505003050 67 217 5.0 12.0 0.00 0.00 0.00 46 1008.0
20260505002541 67 209 3.0 8.0 0.00 0.00 0.00 46 1008.1
20260505002041 67 205 4.0 9.0 0.00 0.00 0.00 45 1008.1
20260505001552 68 159 3.0 9.0 0.00 0.00 0.00 45 1008.2
20260505001042 68 218 4.0 8.0 0.00 0.00 0.00 45 1008.2
20260505000541 68 181 3.0 8.0 0.00 0.00 0.00 44 1008.2
20260505000100 68 199 3.0 8.0 0.00 0.00 0.00 44 1008.1
20260504235545 69 179 3.0 8.0 0.00 0.00 0.00 44 1008.0
20260504235041 69 205 3.0 8.0 0.00 0.00 0.00 43 1007.9
20260504234552 69 131 3.0 9.0 0.00 0.00 0.00 42 1007.9
20260504234041 70 162 4.0 10.0 0.00 0.00 0.00 42 1007.8
20260504233543 70 198 3.0 13.0 0.00 0.00 0.00 42 1007.8
20260504233054 70 193 3.0 13.0 0.00 0.00 0.00 42 1007.8
20260504232543 70 194 3.0 9.0 0.00 0.00 0.00 42 1007.8
20260504232042 70 222 4.0 13.0 0.00 0.00 0.00 41 1007.8
20260504231551 70 183 5.0 13.0 0.00 0.00 0.00 41 1007.8
20260504231041 70 194 4.0 13.0 0.00 0.00 0.00 41 1007.8
20260504230544 71 190 6.0 13.0 0.00 0.00 0.00 41 1007.8
20260504230107 71 216 5.0 14.0 0.00 0.00 0.00 41 1007.9
20260504225545 71 199 3.0 14.0 0.00 0.00 0.00 42 1008.1
20260504225044 71 209 4.0 14.0 0.00 0.00 0.00 41 1008.0
20260504224606 71 195 4.0 12.0 0.00 0.00 0.00 41 1008.0
20260504224041 71 160 3.0 13.0 0.00 0.00 0.00 41 1008.0
20260504223541 71 213 4.0 13.0 0.00 0.00 0.00 41 1008.0
20260504223048 71 193 3.0 12.0 0.00 0.00 0.00 42 1008.0
20260504222540 71 202 2.0 13.0 0.00 0.00 0.00 41 1008.1
20260504222040 71 221 4.0 13.0 0.00 0.00 0.00 40 1008.0
20260504221545 71 214 3.0 11.0 0.00 0.00 0.00 40 1008.1
20260504221043 71 219 3.0 9.0 0.00 0.00 0.00 41 1008.2
20260504220542 71 232 2.0 10.0 0.00 0.00 0.00 41 1008.1
20260504220057 71 200 3.0 11.0 0.00 0.00 0.00 39 1008.0
20260504215542 71 216 3.0 11.0 0.00 0.00 0.00 40 1008.1
20260504215043 71 205 4.0 14.0 0.00 0.00 0.00 40 1008.1
20260504214550 71 219 5.0 14.0 0.00 0.00 0.00 39 1008.0
20260504214041 71 219 5.0 17.0 0.00 0.00 0.00 41 1008.1
20260504213542 71 169 7.0 17.0 0.00 0.00 0.00 39 1008.0
20260504213056 72 235 5.0 16.0 0.00 0.00 0.00 41 1008.0
20260504212542 72 185 4.0 12.0 0.00 0.00 0.00 41 1008.0
20260504212042 72 176 3.0 11.0 0.00 0.00 0.00 42 1008.0
20260504211557 72 220 5.0 11.0 0.00 0.00 0.00 41 1008.1
20260504211041 71 183 2.0 15.0 0.00 0.00 0.00 41 1008.2
20260504210545 71 229 3.0 15.0 0.00 0.00 0.00 40 1008.1
20260504210059 71 248 5.0 16.0 0.00 0.00 0.00 40 1008.1
20260504205544 71 203 6.0 16.0 0.00 0.00 0.00 39 1008.2
20260504205041 71 215 3.0 11.0 0.00 0.00 0.00 42 1008.0
20260504204551 71 238 5.0 14.0 0.00 0.00 0.00 40 1008.1
20260504204041 71 220 5.0 15.0 0.00 0.00 0.00 40 1008.2
20260504203541 72 226 4.0 15.0 0.00 0.00 0.00 41 1008.2
20260504203046 72 223 2.0 19.0 0.00 0.00 0.00 39 1008.2
20260504202542 72 185 2.0 19.0 0.00 0.00 0.00 41 1008.3
20260504202042 71 216 5.0 14.0 0.00 0.00 0.00 40 1008.4
20260504201552 72 212 6.0 14.0 0.00 0.00 0.00 40 1008.4
20260504201041 72 234 4.0 10.0 0.00 0.00 0.00 40 1008.6
20260504200541 72 246 2.0 18.0 0.00 0.00 0.00 42 1008.5
20260504200101 71 228 4.0 20.0 0.00 0.00 0.00 39 1008.6
20260504195542 71 202 8.0 20.0 0.00 0.00 0.00 39 1008.8
20260504195041 71 156 6.0 14.0 0.00 0.00 0.00 39 1008.7
20260504194550 72 240 3.0 15.0 0.00 0.00 0.00 39 1008.8
20260504194041 71 200 5.0 15.0 0.00 0.00 0.00 38 1008.8
20260504193542 72 137 3.0 11.0 0.00 0.00 0.00 39 1008.9
20260504193050 71 238 4.0 14.0 0.00 0.00 0.00 41 1009.0
20260504192543 72 246 5.0 14.0 0.00 0.00 0.00 41 1009.2
20260504192041 72 184 2.0 18.0 0.00 0.00 0.00 42 1009.3
20260504191606 71 207 5.0 18.0 0.00 0.00 0.00 40 1009.3
20260504191041 72 201 4.0 14.0 0.00 0.00 0.00 41 1009.4
20260504190541 71 168 2.0 12.0 0.00 0.00 0.00 41 1009.5
20260504190049 71 225 4.0 12.0 0.00 0.00 0.00 40 1009.6
20260504185541 71 258 3.0 11.0 0.00 0.00 0.00 39 1009.6
20260504185042 71 228 4.0 13.0 0.00 0.00 0.00 41 1009.7
20260504184551 70 231 4.0 13.0 0.00 0.00 0.00 42 1009.9
20260504184041 70 227 5.0 13.0 0.00 0.00 0.00 42 1010.1
20260504183543 70 236 3.0 11.0 0.00 0.00 0.00 42 1010.2
20260504183047 70 214 3.0 12.0 0.00 0.00 0.00 42 1010.3
20260504182542 70 244 4.0 12.0 0.00 0.00 0.00 42 1010.4
20260504182042 70 229 5.0 12.0 0.00 0.00 0.00 45 1010.4
20260504181552 70 234 4.0 12.0 0.00 0.00 0.00 42 1010.6
20260504181043 70 244 4.0 9.0 0.00 0.00 0.00 43 1010.5
20260504180541 69 226 3.0 9.0 0.00 0.00 0.00 43 1010.6
20260504180054 69 212 2.0 14.0 0.00 0.00 0.00 41 1010.6
20260504175540 69 265 3.0 14.0 0.00 0.00 0.00 44 1010.6
20260504175041 69 196 4.0 14.0 0.00 0.00 0.00 43 1010.7
20260504174554 68 178 3.0 14.0 0.00 0.00 0.00 46 1010.6
20260504174040 68 211 2.0 11.0 0.00 0.00 0.00 46 1010.7
20260504173542 69 182 2.0 7.0 0.00 0.00 0.00 45 1010.7
20260504173052 69 210 3.0 13.0 0.00 0.00 0.00 40 1010.7
20260504172541 69 200 3.0 13.0 0.00 0.00 0.00 44 1010.8
20260504172043 69 229 2.0 7.0 0.00 0.00 0.00 41 1010.8
20260504171555 68 234 2.0 13.0 0.00 0.00 0.00 43 1010.9
20260504171041 68 203 2.0 14.0 0.00 0.00 0.00 43 1010.9
20260504170544 67 225 6.0 14.0 0.00 0.00 0.00 41 1011.1